Temp
-10 -11 -11 -12 -12 -11 -11 -11 -11 -11 -11 -11 -11 -10 -10 -9 -9 -9 -9 -9 -9 -10 -10 -11 -11 -10 -10 -10 -10 -9 -9 -9 -8 -8 -8 -8 -9 -9 -9 -9 -9 -9 -9
-11 -11 -11 -11 -11 -11 -11 -11 -12 -12 -12 -13 -12 -12 -11 -11 -10 -10 -10 -10 -10 -10 -11 -11 -11 -10 -10 -10 -10 -9 -9 -9 -9 -9 -9 -9 -9 -9 -9 -9 -9 -9 -9
-11 -11 -11 -11 -11 -11 -11 -11 -12 -12 -11 -12 -14 -13 -12 -12 -11 -11 -11 -11 -11 -10 -10 -11 -11 -10 -10 -10 -10 -10 -10 -10 -9 -9 -9 -9 -9 -9 -9 -10 -10 -10 -10
-11 -12 -11 -11 -11 -11 -12 -12 -12 -13 -12 -12 -13 -12 -13 -13 -12 -12 -13 -12 -12 -11 -11 -12 -11 -11 -10 -11 -11 -10 -10 -10 -9 -9 -9 -9 -9 -9 -9 -10 -10 -10 -10
-11 -11 -11 -11 -11 -12 -12 -12 -13 -13 -13 -13 -12 -12 -13 -13 -14 -14 -13 -12 -12 -11 -12 -12 -11 -11 -11 -11 -11 -11 -11 -10 -11 -10 -10 -10 -10 -10 -10 -10 -10 -11 -11
-11 -11 -11 -11 -11 -12 -12 -12 -12 -13 -13 -13 -12 -12 -12 -13 -13 -14 -13 -12 -13 -12 -12 -12 -12 -11 -11 -11 -12 -11 -12 -12 -11 -10 -10 -10 -10 -10 -11 -11 -11 -10 -11
-11 -11 -11 -11 -11 -12 -12 -12 -12 -12 -13 -13 -13 -12 -10 -12 -13 -13 -13 -13 -13 -13 -13 -12 -12 -12 -12 -12 -12 -12 -12 -12 -11 -12 -11 -11 -11 -11 -11 -10 -10 -11 -11
-11 -11 -11 -12 -12 -12 -12 -12 -12 -12 -13 -13 -13 -11 -12 -12 -12 -12 -13 -13 -13 -13 -13 -12 -12 -12 -12 -12 -12 -11 -11 -11 -12 -12 -12 -11 -11 -11 -11 -11 -11 -11 -11
-12 -11 -12 -12 -12 -12 -12 -13 -13 -13 -13 -13 -13 -13 -13 -12 -12 -11 -12 -13 -13 -13 -12 -12 -12 -12 -12 -12 -12 -12 -11 -12 -12 -12 -11 -11 -11 -11 -11 -11 -11 -11 -11
-11 -12 -11 -12 -12 -13 -14 -14 -14 -13 -13 -13 -13 -12 -13 -13 -12 -11 -11 -12 -13 -13 -13 -13 -13 -12 -13 -13 -12 -11 -12 -13 -12 -12 -11 -11 -12 -11 -11 -11 -11 -11 -12
-11 -13 -12 -12 -12 -13 -13 -13 -13 -13 -12 -12 -12 -12 -13 -12 -12 -12 -12 -12 -13 -12 -13 -13 -13 -13 -13 -13 -12 -12 -13 -12 -12 -12 -12 -12 -11 -11 -11 -11 -12 -12 -12
-12 -13 -12 -12 -12 -12 -12 -12 -12 -13 -12 -12 -12 -12 -12 -12 -12 -12 -12 -12 -13 -12 -13 -13 -13 -12 -13 -12 -14 -13 -13 -12 -12 -12 -12 -12 -12 -12 -11 -12 -12 -12 -12
-12 -12 -11 -11 -12 -12 -12 -11 -11 -11 -12 -12 -12 -12 -12 -12 -11 -11 -12 -12 -12 -12 -12 -12 -13 -12 -12 -15 -14 -13 -12 -12 -12 -12 -12 -12 -12 -12 -12 -12 -12 -12 -12
-12 -12 -11 -11 -11 -12 -11 -11 -11 -11 -11 -12 -12 -12 -12 -11 -11 -12 -12 -12 -12 -12 -12 -12 -12 -12 -13 -13 -12 -12 -12 -12 -12 -12 -12 -12 -12 -12 -12 -12 -12 -12 -12
-13 -12 -11 -11 -10 -11 -11 -11 -11 -12 -11 -11 -11 -12 -12 -12 -11 -11 -12 -12 -12 -12 -12 -12 -12 -12 -13 -13 -12 -12 -12 -12 -12 -12 -12 -12 -12 -12 -12 -12 -12 -13 -13
-13 -12 -12 -11 -10 -10 -11 -11 -11 -12 -12 -12 -11 -11 -11 -12 -11 -11 -12 -12 -12 -12 -12 -13 -12 -12 -13 -13 -13 -12 -12 -12 -12 -12 -12 -12 -13 -12 -12 -12 -13 -13 -13
-12 -12 -12 -11 -11 -11 -11 -11 -11 -11 -11 -11 -11 -10 -10 -12 -12 -12 -11 -12 -12 -12 -12 -12 -11 -13 -12 -13 -13 -12 -12 -12 -12 -12 -12 -12 -12 -12 -12 -13 -13 -14 -14
-12 -12 -12 -12 -11 -11 -11 -11 -11 -12 -11 -10 -10 -9 -11 -11 -11 -11 -11 -13 -12 -12 -11 -11 -12 -12 -12 -13 -13 -12 -12 -12 -12 -12 -12 -12 -12 -13 -13 -13 -14 -14 -14
-12 -12 -12 -12 -11 -11 -11 -11 -11 -11 -11 -12 -11 -11 -11 -11 -10 -11 -11 -12 -12 -11 -11 -12 -13 -13 -12 -12 -13 -13 -13 -13 -13 -13 -13 -13 -13 -13 -13 -14 -14 -15 -15
-13 -13 -13 -12 -12 -12 -11 -11 -11 -11 -11 -11 -12 -11 -11 -11 -11 -11 -11 -12 -11 -10 -11 -11 -12 -12 -12 -12 -13 -13 -13 -13 -13 -13 -13 -13 -13 -13 -13 -14 -15 -15 -16
-13 -13 -13 -12 -12 -12 -12 -11 -11 -12 -11 -11 -11 -11 -11 -11 -11 -11 -11 -12 -12 -12 -12 -12 -12 -12 -12 -12 -12 -13 -13 -13 -13 -13 -13 -13 -13 -13 -14 -15 -15 -15 -16
-13 -13 -13 -13 -12 -12 -12 -12 -11 -11 -12 -12 -12 -11 -11 -11 -11 -11 -11 -12 -12 -13 -12 -12 -12 -12 -12 -12 -13 -13 -13 -13 -13 -13 -13 -14 -14 -14 -14 -15 -15 -15 -16
-14 -13 -13 -13 -13 -13 -12 -12 -11 -12 -12 -12 -11 -11 -11 -11 -11 -11 -12 -12 -12 -12 -12 -12 -12 -12 -12 -12 -12 -13 -13 -13 -13 -13 -13 -14 -14 -14 -15 -15 -15 -15 -16
-14 -13 -13 -13 -13 -13 -12 -12 -12 -12 -12 -12 -12 -11 -12 -11 -11 -11 -12 -12 -12 -12 -12 -12 -12 -12 -12 -12 -12 -13 -13 -13 -14 -14 -14 -14 -15 -15 -16 -16 -16 -16 -16
-14 -13 -14 -14 -13 -13 -13 -12 -12 -12 -12 -12 -11 -12 -12 -12 -12 -12 -12 -12 -12 -12 -12 -12 -12 -13 -13 -13 -13 -13 -13 -13 -14 -14 -15 -15 -15 -15 -15 -15 -15 -15 -15
-14 -14 -14 -14 -13 -13 -13 -12 -13 -12 -12 -13 -12 -11 -12 -12 -12 -12 -12 -12 -12 -12 -12 -12 -13 -13 -13 -13 -13 -13 -14 -14 -14 -15 -15 -15 -15 -15 -14 -14 -15 -16 -16
Height
5813 5812 5809 5807 5805 5804 5803 5802 5800 5801 5801 5802 5803 5804 5808 5810 5813 5816 5819 5821 5822 5824 5826 5828 5831 5834 5834 5835 5837 5839 5841 5843 5843 5844 5844 5845 5846 5848 5847 5847 5849 5849 5849
5808 5806 5804 5803 5802 5799 5798 5797 5796 5796 5796 5794 5796 5799 5801 5803 5805 5809 5813 5816 5819 5820 5821 5825 5829 5831 5832 5834 5835 5836 5838 5839 5840 5841 5842 5843 5844 5845 5846 5846 5847 5848 5847
5803 5801 5799 5798 5797 5794 5793 5793 5792 5793 5792 5790 5793 5794 5796 5797 5799 5803 5806 5810 5814 5817 5820 5822 5825 5828 5830 5833 5835 5836 5836 5837 5838 5840 5841 5842 5843 5844 5845 5845 5845 5845 5846
5800 5798 5796 5794 5792 5790 5788 5788 5788 5789 5790 5790 5788 5788 5790 5793 5794 5797 5801 5806 5810 5813 5816 5818 5821 5824 5827 5830 5832 5835 5837 5837 5837 5839 5840 5840 5840 5843 5842 5844 5845 5844 5844
5795 5793 5791 5788 5786 5784 5783 5782 5784 5784 5784 5784 5785 5784 5784 5785 5788 5793 5797 5801 5804 5807 5811 5814 5817 5821 5823 5827 5828 5831 5833 5837 5837 5838 5838 5838 5839 5842 5840 5841 5843 5843 5843
5789 5788 5786 5782 5780 5778 5777 5776 5777 5777 5777 5777 5777 5780 5779 5780 5785 5787 5791 5796 5800 5803 5807 5811 5814 5817 5820 5823 5824 5828 5830 5833 5835 5836 5836 5837 5838 5839 5839 5839 5841 5842 5842
5785 5782 5780 5777 5773 5773 5771 5771 5770 5770 5770 5771 5773 5774 5775 5775 5773 5777 5786 5789 5795 5800 5804 5806 5811 5814 5817 5819 5821 5825 5827 5829 5832 5833 5834 5835 5837 5838 5837 5838 5839 5840 5841
5778 5776 5773 5771 5768 5765 5764 5764 5762 5763 5764 5766 5761 5753 5771 5775 5774 5776 5782 5785 5791 5796 5800 5805 5807 5811 5816 5817 5821 5824 5823 5827 5829 5831 5832 5833 5835 5836 5836 5836 5837 5838 5838
5775 5772 5768 5766 5764 5761 5759 5758 5757 5757 5757 5757 5756 5759 5766 5769 5775 5774 5778 5780 5787 5792 5797 5800 5804 5806 5812 5817 5820 5819 5823 5825 5827 5830 5831 5832 5833 5834 5834 5835 5835 5834 5834
5770 5768 5764 5762 5760 5757 5754 5751 5749 5746 5748 5748 5750 5753 5756 5764 5767 5768 5773 5776 5783 5787 5793 5797 5801 5803 5808 5813 5813 5815 5819 5823 5826 5828 5829 5830 5830 5831 5832 5831 5831 5831 5830
5766 5761 5760 5758 5755 5752 5749 5747 5743 5741 5738 5743 5743 5748 5753 5762 5762 5757 5771 5774 5778 5781 5789 5793 5795 5798 5804 5809 5810 5811 5816 5822 5824 5826 5827 5827 5828 5829 5829 5828 5828 5828 5826
5764 5759 5756 5753 5749 5746 5744 5741 5740 5738 5735 5736 5738 5741 5745 5752 5759 5763 5768 5771 5775 5778 5786 5788 5792 5796 5801 5805 5807 5809 5816 5819 5821 5823 5824 5825 5827 5827 5826 5825 5825 5824 5824
5761 5757 5755 5751 5746 5741 5738 5736 5736 5734 5732 5733 5734 5737 5741 5747 5750 5758 5764 5767 5772 5776 5781 5784 5789 5793 5799 5802 5805 5809 5814 5817 5818 5820 5821 5822 5824 5824 5822 5821 5821 5821 5821
5758 5755 5751 5747 5741 5737 5733 5732 5731 5729 5728 5726 5727 5729 5733 5739 5745 5752 5760 5766 5769 5774 5778 5781 5786 5791 5795 5801 5803 5808 5812 5813 5814 5816 5818 5820 5821 5820 5819 5818 5817 5817 5817
5751 5750 5746 5742 5736 5731 5728 5726 5726 5724 5721 5719 5718 5718 5723 5728 5735 5745 5756 5761 5766 5771 5772 5777 5785 5789 5795 5800 5801 5806 5808 5809 5811 5813 5814 5815 5817 5817 5816 5815 5814 5812 5812
5746 5745 5741 5736 5731 5726 5723 5721 5721 5719 5712 5708 5705 5710 5715 5723 5729 5740 5751 5759 5763 5768 5770 5775 5781 5786 5791 5798 5799 5804 5805 5806 5807 5808 5810 5812 5813 5813 5811 5809 5808 5808 5807
5743 5739 5736 5732 5727 5722 5719 5718 5716 5713 5707 5702 5700 5705 5712 5720 5729 5739 5748 5756 5761 5765 5768 5772 5778 5782 5789 5795 5796 5799 5802 5804 5804 5804 5806 5808 5808 5807 5806 5804 5803 5802 5801
5739 5735 5732 5729 5724 5720 5717 5716 5714 5711 5707 5703 5702 5703 5711 5720 5729 5738 5746 5752 5757 5762 5766 5770 5775 5778 5785 5792 5793 5795 5797 5800 5800 5800 5801 5802 5801 5801 5800 5799 5798 5797 5796
5735 5731 5727 5724 5721 5717 5715 5714 5711 5709 5706 5706 5707 5711 5715 5721 5729 5737 5743 5749 5753 5759 5764 5767 5771 5775 5781 5787 5789 5791 5794 5795 5795 5795 5796 5796 5795 5794 5794 5793 5792 5791 5792
5730 5726 5723 5721 5717 5713 5713 5712 5709 5708 5707 5706 5711 5713 5715 5722 5727 5733 5739 5745 5751 5756 5760 5762 5767 5773 5776 5780 5784 5786 5787 5789 5790 5789 5789 5789 5789 5789 5788 5787 5787 5787 5787
5726 5723 5720 5719 5715 5711 5710 5710 5707 5704 5705 5705 5706 5708 5714 5718 5724 5731 5737 5744 5748 5754 5757 5757 5762 5766 5770 5775 5778 5782 5781 5780 5781 5782 5783 5782 5781 5781 5781 5781 5781 5781 5782
5722 5720 5718 5716 5712 5709 5707 5705 5706 5703 5701 5702 5703 5706 5712 5717 5721 5728 5734 5742 5745 5749 5753 5753 5757 5761 5765 5769 5772 5774 5776 5776 5775 5772 5774 5774 5775 5775 5775 5776 5776 5776 5777
5718 5718 5715 5713 5710 5707 5704 5703 5703 5702 5700 5700 5701 5705 5708 5714 5719 5724 5730 5735 5739 5744 5748 5749 5752 5757 5761 5763 5766 5768 5767 5767 5766 5767 5766 5767 5768 5769 5769 5771 5771 5771 5772
5715 5714 5712 5711 5709 5705 5702 5700 5700 5700 5698 5699 5700 5702 5706 5711 5717 5721 5725 5729 5735 5740 5743 5745 5748 5752 5755 5757 5759 5760 5759 5758 5758 5759 5760 5761 5763 5763 5763 5763 5765 5765 5765
5710 5710 5709 5708 5707 5704 5701 5698 5698 5699 5698 5697 5698 5700 5704 5707 5712 5716 5720 5725 5730 5734 5737 5740 5743 5746 5748 5750 5751 5751 5751 5751 5752 5753 5753 5755 5758 5759 5759 5759 5761 5761 5761
5706 5706 5706 5706 5704 5703 5700 5697 5696 5697 5696 5696 5698 5697 5701 5704 5708 5711 5716 5722 5725 5727 5728 5734 5737 5740 5742 5743 5743 5744 5744 5745 5746 5748 5748 5750 5752 5752 5752 5753 5753 5754 5753
Wind_Speed
34 30 29 31 33 34 35 33 32 29 29 33 35 39 37 39 37 34 33 31 30 27 26 26 26 25 23 22 23 24 24 22 22 20 18 18 15 14 12 10 10 8 8
26 28 31 31 29 30 32 31 30 27 29 36 34 36 37 39 38 35 34 33 31 29 27 23 24 25 23 23 24 25 23 22 21 21 19 16 14 12 10 9 9 9 9
28 28 28 28 27 28 30 32 28 24 23 18 27 28 33 38 39 36 34 32 28 27 27 26 26 24 21 23 23 23 23 22 20 16 14 12 11 11 11 11 11 10 9
21 22 25 27 29 29 29 30 27 25 26 29 29 29 28 33 35 35 30 28 29 27 26 27 27 28 24 23 23 21 18 19 16 15 11 12 12 15 14 13 11 9 10
18 21 24 28 28 29 27 26 24 25 25 26 27 29 29 30 31 29 28 27 28 28 27 29 29 30 28 25 24 20 23 16 14 15 15 13 13 17 13 12 12 10 9
24 26 26 28 29 27 27 25 27 28 28 30 31 27 40 37 34 27 26 27 28 26 25 24 26 30 25 29 24 22 19 20 18 16 15 15 16 19 15 11 11 12 12
24 26 29 27 29 26 23 26 27 28 30 31 31 27 30 39 40 25 25 29 30 29 23 25 26 23 29 27 21 22 21 19 15 14 13 12 12 15 14 14 13 11 8
26 30 29 25 26 26 26 26 26 28 29 29 36 37 33 43 32 36 32 31 31 29 26 24 25 27 29 26 26 26 25 11 16 17 16 12 15 16 14 11 11 10 10
26 27 26 24 19 14 18 21 26 30 33 33 35 37 39 30 36 29 38 34 31 30 26 26 31 31 33 29 25 28 24 17 17 16 15 14 14 13 12 12 12 10 13
27 26 24 21 20 17 21 19 26 34 35 36 36 32 28 24 32 31 30 30 29 27 28 29 33 32 31 35 31 30 20 17 18 17 16 13 12 8 8 12 14 15 13
26 27 26 24 21 22 23 14 12 17 25 26 29 27 25 22 35 23 28 32 30 27 28 31 35 31 34 38 28 20 17 16 16 13 11 10 10 9 10 12 13 16 12
22 22 27 26 23 23 20 18 15 16 19 21 23 24 27 23 39 39 32 30 31 31 26 29 33 28 33 31 21 20 14 14 14 11 13 9 10 12 12 11 13 14 13
18 25 24 26 24 24 22 19 15 13 15 20 26 30 31 32 36 35 34 35 36 31 23 28 27 25 26 20 20 18 13 14 13 10 9 12 12 11 11 12 13 15 17
17 21 26 24 26 24 22 20 16 12 13 21 28 30 30 32 34 40 42 31 33 28 28 27 30 27 20 21 20 16 16 15 13 11 9 9 11 11 11 11 12 16 17
23 19 25 27 26 23 19 18 14 14 16 20 27 32 32 34 40 44 46 23 26 31 24 32 32 21 22 24 20 20 18 17 12 11 11 12 16 13 12 13 15 16 18
25 24 25 28 23 22 17 16 13 12 15 22 25 30 33 36 42 53 47 26 29 30 23 24 29 26 25 23 23 20 17 16 15 15 16 15 14 16 13 15 17 18 18
27 25 26 26 22 20 14 14 11 8 16 9 14 22 42 52 46 46 35 31 32 28 27 25 27 29 27 24 25 20 19 18 19 16 18 20 18 16 18 19 19 19 17
25 26 26 25 19 14 11 12 10 7 13 9 7 27 36 45 42 39 37 31 35 31 29 30 33 35 30 27 26 25 25 22 20 17 20 22 19 20 22 22 20 19 20
22 25 24 24 17 10 9 11 9 6 4 13 12 22 38 41 46 40 28 31 33 31 29 27 31 30 28 28 29 29 28 24 23 22 23 25 23 25 25 22 21 20 19
20 23 23 22 20 12 9 12 10 6 4 1 2 33 39 52 48 36 24 30 29 33 31 24 24 31 33 30 30 31 32 30 29 29 28 31 27 25 23 22 21 19 20
18 20 22 22 19 13 10 12 12 8 5 5 4 13 45 46 43 43 27 28 32 28 24 22 26 29 35 34 33 33 35 35 35 34 32 26 28 25 24 22 20 19 19
17 19 20 20 18 13 12 11 13 9 5 3 10 13 37 47 53 47 33 30 26 25 19 20 22 24 28 31 37 37 37 37 37 32 30 27 27 25 22 20 19 19 19
16 18 17 17 17 13 12 11 11 9 6 3 13 23 24 42 48 47 30 28 25 25 19 19 19 22 25 29 34 29 29 25 29 25 26 26 26 23 20 20 19 18 18
15 16 15 15 15 12 10 13 12 11 3 3 15 22 33 36 44 47 36 30 30 30 26 24 23 23 26 26 29 29 31 31 32 27 24 26 22 21 20 17 17 19 20
14 13 13 13 13 9 9 11 12 14 7 5 8 20 32 36 43 45 37 35 42 34 30 29 29 26 27 27 27 34 36 32 25 24 26 26 23 25 25 23 21 20 22
14 11 13 12 12 8 6 6 7 11 12 9 9 13 14 23 24 30 40 34 29 33 38 34 33 25 26 28 29 33 28 25 24 27 26 26 25 27 26 22 21 22 25
Wind_Direction
300 300 296 290 285 288 287 284 283 277 268 262 258 258 257 256 252 247 243 238 236 236 237 238 239 237 231 232 236 232 234 226 221 222 220 220 219 223 224 224 235 238 242
294 289 289 292 291 291 291 284 282 282 281 254 249 247 253 254 251 246 243 239 232 234 231 230 235 231 235 236 234 226 220 217 216 216 216 216 215 218 221 221 224 239 250
296 298 293 292 289 286 287 284 272 276 258 242 245 260 254 249 254 249 245 241 235 232 234 234 232 233 234 240 236 227 221 218 215 215 211 211 210 224 220 224 233 243 264
299 293 291 289 283 278 282 282 269 263 251 257 260 264 261 254 250 247 244 241 237 234 231 226 233 236 232 231 233 232 227 223 209 212 212 223 224 238 234 240 248 258 266
292 299 295 286 279 275 275 274 266 255 250 246 251 253 266 263 254 244 240 237 233 234 231 230 234 236 231 232 221 215 215 220 212 222 220 228 243 243 239 244 256 271 286
302 301 297 287 278 267 264 263 260 263 252 250 246 240 252 266 239 239 225 228 234 230 228 231 233 237 229 234 233 207 207 214 227 235 242 243 245 253 245 248 267 279 286
302 305 305 292 284 275 265 258 256 257 254 247 250 235 215 257 240 214 206 216 223 226 226 226 232 229 228 232 226 210 204 215 234 239 231 228 240 244 249 256 268 277 287
315 309 305 299 290 277 266 256 247 247 251 256 254 229 264 252 211 218 207 217 223 223 225 231 226 225 228 216 203 202 215 226 244 247 257 258 244 249 253 261 265 263 266
311 310 309 304 300 295 288 276 261 248 250 251 255 257 239 243 236 207 216 210 219 222 218 224 222 217 215 214 202 208 217 236 242 248 244 247 252 256 262 258 257 247 250
312 314 309 299 292 272 316 283 272 252 248 249 250 253 249 244 210 198 212 209 207 209 217 221 226 225 226 208 208 212 210 222 234 238 246 246 245 239 237 244 250 250 258
314 318 315 310 291 282 298 306 296 270 258 249 249 246 245 220 201 180 204 206 204 204 214 222 231 235 221 214 211 205 216 226 231 238 246 251 236 226 249 260 260 259 261
310 312 314 316 304 291 293 287 299 304 273 258 247 228 219 227 215 217 217 216 218 211 222 225 235 236 234 209 200 213 213 225 230 240 249 246 243 258 262 272 267 262 256
304 300 307 315 312 294 286 284 288 295 275 242 238 239 242 230 213 216 209 211 212 219 233 227 233 242 203 188 202 216 216 225 229 238 254 253 253 254 270 269 266 262 253
304 300 304 313 309 296 277 274 276 276 282 261 257 246 228 213 214 199 201 202 213 221 223 218 222 200 180 196 209 220 222 232 239 246 252 242 254 270 270 263 257 253 254
309 307 308 303 305 300 271 272 267 265 292 279 253 244 229 225 216 201 201 204 209 214 203 215 209 204 197 207 216 225 226 233 236 244 244 248 268 262 263 261 255 252 249
305 313 317 310 306 303 274 270 273 272 314 280 253 232 216 203 186 190 203 212 201 207 201 205 205 213 217 216 223 229 234 236 240 240 242 259 263 269 275 278 266 259 254
301 314 323 320 310 305 271 271 275 303 334 271 207 200 194 178 182 192 200 205 209 208 213 212 215 213 226 222 231 235 241 238 239 241 250 255 270 270 282 274 264 255 252
303 313 326 320 309 309 271 272 269 284 353 221 223 202 184 179 189 198 207 208 211 208 212 222 219 223 233 233 236 243 243 244 247 254 258 258 262 274 278 271 260 253 249
304 312 330 318 314 310 268 263 272 271 351 346 198 169 185 184 190 201 212 213 203 207 214 213 217 222 229 236 238 246 251 253 261 262 266 268 268 276 279 264 257 246 245
303 314 327 318 317 310 273 259 264 250 236 215 207 216 204 189 195 202 216 206 204 208 213 213 221 228 233 240 246 249 255 259 264 265 265 271 268 269 262 258 249 246 245
300 313 320 316 320 303 273 256 258 254 236 200 243 196 199 191 198 207 219 209 203 211 220 217 230 239 241 246 247 251 256 262 262 266 271 274 261 257 250 245 240 237 239
296 306 312 312 317 304 277 254 251 246 234 250 194 201 199 206 208 205 217 214 203 213 225 226 235 239 244 248 252 256 267 268 268 269 272 257 252 244 238 237 237 239 245
286 299 303 306 312 313 267 241 241 230 247 267 207 213 203 205 203 211 202 203 210 221 231 237 236 241 251 252 253 263 259 254 256 252 254 253 242 238 230 231 238 249 255
271 291 292 297 304 315 277 238 222 222 197 207 205 212 204 215 217 217 214 218 221 229 242 243 238 246 258 258 246 255 242 243 251 247 237 226 233 232 231 233 243 253 259
268 282 277 284 295 303 303 238 221 213 198 166 183 202 208 224 219 214 222 236 232 234 241 238 232 251 257 250 245 248 249 248 239 228 223 226 219 224 229 233 238 247 257
259 268 264 266 282 292 298 285 220 212 201 170 182 181 199 204 218 225 227 229 234 238 241 248 238 246 247 251 247 242 232 229 222 219 225 227 228 236 240 247 258 265 272